RASAT

Last updated on Thu Oct 30 2025 00:02:31 GMT+0000 (Coordinated Universal Time)

1 37791U 11044D 25302.53639999 .00000937 00000+0 17237-3 0 9993 2 37791 98.0667 32.4496 0020274 200.2720 285.9518 14.67809799759347
UTC large
Height (km)
Speed (km/s)
/
Latitude / Longitude
Inclination (degrees)
Orbital Period (minutes)
Azimuth
Elevation
Range (km)
Doppler Factor

Next 0 passes for location: London (51.5072 / 0.1276)

Sorry there are no passes over London.